Theta_e
298 298 298 298 298 298 298 299 299 299 299 299 300 300 300 300 299 300 301 300 300 300 299 298 299 299 299 300 300 301 301 301 301 301 302 303 305 305 306 306 308 309 309 308 308 307 306 305 306 306 306 306 307 307 306 306 307 308 308 309 310 310 311 310 310 309 309 310 310 310 311 311 310 310 310 311 311 310 311 310 312 311 311 315 314 310 320
298 298 298 297 297 298 298 299 299 299 299 299 300 300 300 300 299 300 301 300 300 300 299 300 301 301 300 301 301 301 301 301 301 302 303 304 305 306 306 306 308 309 308 309 310 309 307 306 307 307 307 307 306 306 306 306 307 308 309 310 309 310 310 310 310 310 310 311 310 310 311 311 310 310 310 311 311 311 312 311 312 313 311 313 311 309 320
298 298 297 297 297 298 298 298 299 299 299 299 300 301 300 300 300 301 300 300 300 300 300 300 301 302 302 302 302 302 303 302 302 303 304 305 305 306 306 306 307 308 308 309 310 310 309 308 308 308 307 307 306 305 306 307 306 307 310 312 309 309 311 310 310 311 311 311 311 310 310 310 311 311 310 311 311 311 312 311 312 313 311 311 309 311 323
298 297 296 296 297 297 298 298 298 299 299 299 300 301 301 301 301 301 301 301 300 300 300 300 301 302 303 304 304 304 305 305 304 305 306 306 306 306 307 307 308 308 309 311 310 309 310 310 309 308 309 308 306 305 306 306 306 309 313 313 310 309 311 311 311 311 310 311 310 310 311 310 310 310 310 311 311 312 313 312 311 311 310 310 310 312 323
297 297 296 297 297 297 298 298 297 298 299 299 300 301 301 301 301 301 301 302 301 302 302 301 301 301 302 303 304 305 305 306 305 306 306 306 306 307 307 308 308 309 311 312 311 309 310 312 311 310 311 311 307 306 306 306 310 313 312 311 310 310 311 311 312 312 310 309 311 310 311 311 310 310 310 311 311 312 313 312 312 312 311 311 312 313 318
297 297 297 298 298 298 298 298 298 298 299 299 300 301 301 301 301 300 300 302 303 303 303 302 302 302 303 303 304 305 306 306 306 306 305 305 305 307 309 309 309 310 310 312 313 312 314 316 316 313 313 311 307 307 306 306 310 312 309 309 310 310 310 311 313 313 310 310 312 311 311 311 310 311 311 311 312 312 313 313 313 314 312 312 315 317 314
297 297 298 298 298 298 298 298 298 298 299 300 301 301 300 300 300 300 300 301 302 303 303 303 303 303 304 305 305 306 306 306 306 306 306 307 307 308 310 312 311 310 310 311 314 317 317 318 320 319 315 310 308 307 307 306 308 308 307 310 311 310 309 311 312 312 312 313 313 312 312 311 310 311 312 312 313 312 313 314 314 316 315 315 317 318 316
297 297 298 298 297 298 298 298 299 298 299 300 301 301 300 300 299 299 300 300 301 303 304 304 305 305 305 305 305 306 306 306 306 307 307 308 309 309 311 312 311 311 311 311 314 316 317 318 320 320 318 315 312 309 308 308 308 307 308 310 312 311 310 311 312 312 314 315 314 314 313 312 312 311 311 312 313 312 313 314 315 316 315 316 318 317 319
297 297 297 297 297 297 297 298 299 298 299 300 301 301 300 300 299 299 299 300 302 304 305 305 306 306 305 305 306 306 306 306 307 307 307 308 310 310 311 311 312 312 312 312 313 314 314 316 317 318 318 318 318 315 313 311 308 308 310 311 312 311 311 312 312 311 313 315 314 314 315 315 314 312 312 312 312 313 314 313 315 316 315 317 318 315 318
297 297 297 297 297 296 296 297 298 298 299 300 300 301 300 300 300 299 299 301 303 304 305 306 306 307 306 306 306 306 306 306 306 307 307 307 309 310 310 310 311 312 313 312 312 312 313 313 315 316 315 317 318 318 319 316 311 310 311 311 311 310 310 312 311 309 314 317 315 315 316 316 315 315 315 314 313 314 314 314 316 318 316 315 315 314 320
297 297 297 296 296 295 296 296 297 297 298 299 299 300 299 299 299 299 300 302 303 304 305 305 306 306 306 306 306 306 306 306 307 308 307 307 308 309 309 309 310 312 312 311 310 310 311 312 313 315 315 316 318 318 319 319 315 312 311 311 312 310 310 312 311 310 314 318 317 315 316 318 319 320 322 321 318 316 315 316 318 318 318 320 321 323 328
296 296 296 296 296 295 296 296 297 297 298 299 299 299 298 298 299 299 300 301 303 303 304 305 305 305 305 306 306 307 307 307 307 308 308 308 308 308 308 309 310 311 311 310 309 310 313 315 316 316 316 317 318 318 318 318 316 314 312 311 312 311 310 312 311 310 313 317 317 316 317 320 322 322 322 322 322 321 320 321 321 319 323 325 325 328 331
296 296 295 295 296 296 296 296 297 297 297 299 299 298 298 297 298 299 300 301 302 303 303 304 304 304 305 306 306 307 307 307 307 307 308 308 308 309 309 309 310 310 309 309 310 312 316 318 318 318 317 317 318 318 318 318 317 314 311 310 312 312 311 312 312 312 314 316 315 316 319 323 324 323 322 320 321 321 321 321 321 322 324 322 322 327 331
295 295 295 295 296 296 296 296 296 297 297 298 299 299 297 297 297 297 298 300 301 301 302 303 304 305 305 305 306 307 307 308 308 308 309 309 309 310 310 309 310 309 309 310 312 314 316 317 318 318 317 316 317 318 318 318 318 317 314 311 312 312 311 311 313 314 315 314 314 316 320 323 325 326 324 321 321 321 318 317 319 321 322 322 324 329 331
294 294 294 295 295 296 296 296 296 297 297 298 298 299 298 297 296 296 297 298 299 300 302 303 304 304 304 305 306 306 307 308 309 309 309 310 310 311 310 309 310 309 309 312 314 314 313 315 318 317 316 317 317 316 317 317 317 318 317 313 311 312 311 312 314 315 315 313 313 315 317 319 323 327 326 323 323 324 321 318 319 322 323 324 327 330 329
294 294 294 295 295 295 296 296 296 297 297 298 298 298 298 298 297 295 296 297 298 301 303 303 302 303 304 305 305 306 306 307 308 310 311 311 311 311 310 310 311 311 310 313 315 313 312 315 317 315 315 316 316 315 317 317 316 317 318 315 313 313 312 312 313 314 314 314 314 315 315 317 322 326 326 323 323 325 324 318 318 324 325 324 327 329 328
294 294 294 294 295 295 295 296 296 297 297 298 298 299 299 299 298 296 296 296 297 300 301 301 301 303 304 305 306 306 307 308 308 310 311 312 312 312 312 311 312 312 312 313 315 314 313 315 315 315 315 317 316 315 316 317 317 317 318 317 315 313 312 312 313 313 313 314 314 314 314 318 322 324 324 322 322 326 324 316 316 325 325 323 326 328 327
294 294 294 294 295 295 296 296 296 297 297 298 298 299 300 300 299 298 297 296 297 299 301 301 301 302 303 304 305 306 307 308 309 309 310 311 311 312 312 312 312 313 313 314 315 314 314 315 315 315 316 318 317 315 315 316 315 316 317 317 316 313 311 312 312 312 313 314 314 314 315 319 322 323 322 322 322 324 323 317 319 326 326 323 326 328 327
293 294 294 294 295 295 295 296 296 297 297 297 298 299 300 300 300 299 298 297 297 299 301 301 301 300 301 302 303 304 305 307 307 309 310 311 312 312 312 312 312 313 313 313 314 314 315 315 317 316 315 316 317 316 315 316 316 316 317 317 316 313 312 312 311 312 312 313 313 314 315 318 322 323 322 322 322 322 321 319 320 324 325 324 326 327 326
293 294 294 294 294 295 295 296 296 296 297 297 298 299 300 300 300 300 299 299 298 299 301 301 301 301 302 303 304 305 306 307 307 309 311 311 311 312 312 313 313 312 313 313 313 314 315 315 317 317 315 316 318 317 316 317 317 318 317 317 315 314 312 311 312 312 313 313 313 314 315 318 323 323 322 323 323 321 321 322 321 323 326 326 326 326 325
293 293 294 294 294 295 295 296 296 296 297 297 298 298 299 300 300 300 300 299 299 300 301 302 302 302 302 303 304 305 306 307 308 309 310 311 311 312 313 314 313 313 313 313 313 314 315 315 317 317 316 317 318 317 316 316 316 317 318 317 317 316 314 311 311 312 312 312 313 316 318 321 323 323 322 323 322 319 321 323 323 324 325 325 325 324 323
293 293 294 294 294 295 295 296 296 296 297 297 297 298 299 300 300 300 300 300 299 299 301 301 301 301 301 302 302 303 304 305 306 308 308 309 310 311 312 313 314 314 314 313 313 314 314 315 316 316 316 317 317 316 317 316 316 318 318 317 317 319 318 316 315 315 315 316 317 318 319 320 321 320 319 320 319 317 319 322 323 324 324 324 323 323 322
293 293 293 294 294 294 295 295 296 296 297 297 297 298 299 299 300 300 301 301 300 300 301 301 301 303 303 303 303 303 302 302 304 305 306 308 310 311 311 313 314 314 313 313 314 314 314 315 316 316 316 317 317 316 316 315 315 319 319 317 317 319 318 318 319 318 317 318 318 318 317 318 319 317 316 316 317 318 319 321 322 323 323 322 322 322 322
292 293 293 294 294 294 295 295 295 296 296 296 297 298 298 299 300 300 301 301 301 302 304 304 303 305 306 305 305 305 304 303 303 304 304 307 309 311 312 312 312 313 314 313 313 313 313 314 315 315 316 317 317 316 316 315 316 318 318 317 319 318 317 318 320 318 316 318 319 318 318 318 318 317 317 316 316 317 319 321 322 321 321 321 321 321 320
292 293 293 294 294 294 295 295 295 296 296 296 297 298 299 300 300 301 301 302 301 301 304 305 306 306 305 304 305 306 305 305 305 305 305 306 308 310 312 312 311 312 313 312 312 312 312 313 314 315 316 317 317 316 316 316 317 318 317 318 319 318 316 318 320 319 317 319 318 316 315 315 315 316 317 318 317 317 318 320 321 321 320 320 320 320 319
292 293 293 293 294 294 295 295 295 296 296 296 297 298 299 300 301 301 301 302 302 301 302 305 307 307 306 306 306 306 305 305 306 306 307 307 308 309 310 310 310 310 310 310 311 312 311 312 314 315 317 317 316 316 317 317 317 317 317 317 316 316 316 317 320 320 318 318 317 315 315 316 316 315 316 317 316 317 318 318 319 319 319 319 319 319 318
292 293 293 293 294 294 294 295 295 296 296 297 297 298 299 300 301 302 302 302 303 304 304 305 307 307 307 306 306 305 305 306 307 307 308 308 308 308 309 309 310 309 309 310 310 310 310 312 313 315 316 316 315 316 317 317 316 317 317 316 315 316 318 318 318 318 318 319 319 318 319 320 318 317 316 315 315 317 318 318 318 319 318 318 318 317 317
292 293 293 293 294 294 294 294 295 295 296 297 297 299 300 301 302 302 302 302 303 304 304 304 305 307 307 307 306 305 305 307 308 309 309 309 309 309 309 309 310 310 311 311 310 310 311 313 313 313 313 313 315 316 316 316 316 317 318 316 315 316 317 317 317 318 318 319 319 319 320 321 318 316 315 315 315 316 317 318 318 318 318 317 317 316 315
292 293 293 294 294 294 294 293 294 295 296 297 298 300 301 302 302 302 302 302 302 302 303 303 305 307 307 307 307 306 305 306 308 310 310 310 310 310 309 309 310 311 311 310 310 311 311 310 310 310 310 311 313 315 316 316 317 317 316 315 314 314 314 314 316 318 318 317 317 317 317 317 316 315 314 314 315 316 317 317 317 317 317 316 316 315 314
293 293 293 294 294 294 293 292 294 296 297 297 299 301 302 304 303 301 301 301 302 301 301 303 306 307 308 308 308 307 306 306 308 310 310 310 310 310 310 310 310 310 310 310 309 309 309 308 309 310 309 309 311 313 314 316 317 316 314 313 313 313 313 313 314 316 316 315 314 314 314 314 314 314 314 313 314 315 316 316 317 317 316 316 315 314 313
293 293 293 294 293 292 292 292 294 296 297 298 300 303 304 305 304 301 300 301 302 301 301 302 305 306 307 308 309 307 305 305 307 308 308 309 309 309 309 309 308 308 309 309 307 307 308 308 309 311 310 308 308 312 314 316 318 316 313 312 312 313 313 313 313 313 313 313 312 313 313 313 313 314 314 313 313 314 315 315 316 315 314 314 314 313 313
293 293 294 293 292 291 292 294 295 296 298 299 300 302 303 303 302 300 300 301 302 302 302 304 306 307 307 308 309 307 305 306 306 306 306 307 308 308 308 308 307 307 307 307 306 306 307 306 308 312 311 308 308 312 315 316 317 315 312 311 312 312 312 313 313 312 312 312 313 314 315 313 312 314 314 313 313 313 314 314 315 314 313 312 312 311 311
293 293 293 292 291 292 293 294 296 297 298 298 299 301 301 300 300 300 301 301 302 302 302 305 307 307 307 308 308 306 306 307 307 306 305 305 307 307 307 307 307 306 306 306 306 306 306 306 308 310 310 307 309 313 315 315 314 312 310 310 311 312 312 312 312 312 311 311 312 315 315 313 311 312 312 312 312 313 313 313 314 313 311 310 309 308 308
293 292 292 291 292 294 295 296 298 299 299 300 302 303 302 301 301 301 301 302 303 303 303 304 307 308 308 308 307 306 306 307 306 305 305 305 306 306 307 307 307 306 306 306 306 306 306 307 308 309 309 308 308 312 314 314 312 310 310 310 310 310 311 311 311 311 311 310 311 312 312 311 310 311 311 311 311 312 312 312 312 310 309 309 308 307 307
292 291 291 292 294 296 298 300 301 302 303 305 305 303 301 301 301 302 302 303 304 305 304 304 305 307 307 307 306 306 307 307 306 305 305 305 306 306 306 306 306 306 306 306 306 306 307 306 306 308 309 308 309 312 313 313 311 311 311 311 309 310 312 312 311 310 310 310 310 310 310 310 310 311 310 310 310 310 310 310 310 309 308 307 306 306 305
291 291 292 294 297 300 302 303 304 305 306 305 304 301 300 301 302 302 302 303 304 306 306 305 305 306 307 307 306 306 307 306 306 306 306 305 305 304 305 305 304 305 305 306 306 307 306 305 306 308 308 308 310 312 312 312 312 312 312 311 310 311 312 312 311 310 310 310 311 310 310 310 310 310 310 309 309 310 310 309 308 308 307 306 306 305 305
291 292 294 298 301 303 305 306 305 304 303 301 301 300 301 302 303 303 302 303 304 305 305 306 306 307 307 306 306 306 306 305 305 305 305 304 303 303 303 304 303 303 305 305 305 305 305 305 306 307 307 308 311 311 311 311 312 312 311 311 310 310 310 310 310 310 310 310 310 310 309 309 309 309 309 309 309 309 309 308 308 307 307 306 305 305 305
293 294 297 300 303 304 305 306 304 301 299 300 301 303 304 304 304 304 303 304 304 305 305 306 307 307 307 307 307 307 305 305 305 305 303 303 303 303 303 303 302 302 304 305 304 304 305 305 305 305 306 309 311 311 310 310 310 310 310 310 309 309 309 309 310 311 311 311 310 310 309 309 309 308 308 308 308 308 307 307 307 306 306 306 305 305 305
295 297 298 301 303 303 303 302 300 299 300 301 303 305 305 304 304 305 305 305 306 307 307 307 308 307 307 308 308 306 305 305 305 304 303 303 303 303 303 303 302 302 303 304 304 304 305 305 305 305 306 309 312 311 310 310 310 310 310 309 309 308 308 309 309 310 311 310 310 309 309 309 309 308 308 307 307 306 306 306 306 306 306 306 305 305 305
296 297 298 300 301 301 299 298 298 299 302 304 304 304 305 305 305 305 305 305 306 307 307 307 307 306 306 306 307 306 306 305 305 304 303 303 303 303 303 303 302 302 302 302 302 304 305 305 304 305 305 308 311 312 310 310 310 310 309 309 309 309 309 308 309 309 310 309 309 308 308 308 308 308 308 307 306 305 305 305 305 306 305 305 304 304 304
295 296 296 297 298 297 297 297 299 301 303 304 303 304 304 304 303 303 303 304 304 304 305 305 306 306 306 306 306 306 306 305 304 304 303 303 303 303 302 302 302 301 302 301 302 303 304 304 304 304 305 307 311 311 310 310 310 310 309 309 309 309 309 309 309 309 309 309 307 307 308 309 308 308 308 307 306 305 305 305 305 305 304 304 304 304 304
294 294 294 295 296 296 297 299 301 303 303 303 304 304 304 303 303 303 302 303 303 303 304 304 305 305 305 305 304 305 306 305 304 304 303 302 301 302 302 302 302 301 301 301 302 303 304 304 304 304 305 308 310 311 310 310 310 310 309 309 309 309 309 308 308 309 309 308 307 307 308 308 308 308 307 307 306 306 306 305 305 304 304 304 304 304 303
293 294 295 295 296 297 299 301 302 303 304 303 303 304 304 303 302 303 303 303 303 304 304 305 304 305 305 305 305 306 306 304 303 303 302 301 301 301 301 301 301 301 301 302 303 304 304 303 304 304 306 308 310 310 310 309 310 309 309 309 309 310 309 308 308 309 309 309 308 308 308 307 307 306 306 305 305 305 305 304 304 304 304 304 303 303 302
295 296 296 297 298 300 302 303 302 303 304 304 303 304 305 304 303 303 303 303 304 304 305 304 304 305 306 305 305 305 305 303 302 302 301 301 301 301 301 301 301 301 302 302 303 304 303 304 304 305 306 307 308 310 310 309 309 309 309 309 309 309 308 308 308 308 308 308 308 308 308 307 307 306 306 305 305 304 304 304 304 303 303 303 302 302 302
296 298 299 300 300 301 303 304 303 303 304 304 304 304 305 305 304 304 303 303 303 304 304 304 304 305 305 305 305 304 303 303 302 302 302 302 301 301 301 301 301 301 302 302 303 304 304 304 305 306 306 306 308 309 309 308 308 309 309 308 308 308 307 307 308 308 307 307 308 308 308 307 307 306 306 305 305 304 304 304 304 303 303 302 302 301 301
296 297 299 301 302 301 302 304 304 304 304 303 303 304 304 304 304 303 303 302 303 303 304 304 304 305 305 306 305 303 303 303 302 302 302 302 302 301 301 300 300 301 302 303 303 304 305 305 305 306 307 307 308 309 309 308 308 308 308 308 308 308 307 307 308 307 308 308 308 308 308 307 307 307 306 305 304 304 304 304 303 303 302 302 302 301 301
296 297 298 300 302 302 302 303 304 303 303 302 302 303 303 303 303 303 302 301 302 303 303 304 304 304 304 304 304 303 303 303 302 301 301 302 302 301 300 300 300 301 302 303 304 304 305 305 306 307 307 307 308 309 308 307 307 307 307 308 308 308 307 307 307 308 308 308 308 308 308 307 307 307 306 304 303 303 303 303 303 303 302 302 302 301 301
297 298 299 301 302 302 302 303 303 302 302 302 302 301 302 302 303 302 302 301 302 303 304 305 305 305 304 304 304 304 303 303 302 301 301 301 301 300 299 300 301 301 302 304 304 305 305 306 306 307 307 307 308 309 308 307 307 307 307 307 307 307 307 307 307 307 308 308 308 308 307 306 306 306 306 305 304 303 303 303 303 303 302 302 302 301 301
296 297 298 300 302 301 301 302 302 302 302 302 302 302 302 302 302 302 301 301 302 303 303 303 303 304 304 304 303 303 303 303 302 302 301 301 300 300 299 300 301 302 303 304 305 305 306 306 307 307 308 308 308 308 307 307 307 307 306 307 307 307 307 308 307 307 308 308 307 307 306 306 306 306 306 305 304 303 302 303 303 303 302 302 302 302 302
296 297 298 300 301 302 302 302 302 303 303 302 302 302 302 302 302 301 301 301 302 303 303 303 302 303 303 303 302 303 303 302 302 302 302 301 301 300 300 300 301 302 303 304 305 306 306 306 307 307 308 308 308 307 307 307 306 306 307 308 308 308 308 308 307 307 307 307 306 306 305 305 305 306 306 305 304 303 302 302 302 302 302 301 301 302 302
296 297 298 299 300 301 301 302 302 302 303 302 302 301 301 301 301 301 300 300 302 303 303 302 302 302 303 303 303 303 302 301 301 302 303 302 301 301 301 301 302 303 304 305 306 307 306 306 307 307 308 308 308 307 306 306 306 306 308 308 308 308 308 307 306 307 307 306 306 305 305 305 305 305 305 305 304 303 302 302 301 301 301 301 300 301 301
296 297 297 298 298 299 300 301 301 301 301 301 301 300 300 300 300 299 300 301 302 302 301 301 302 303 303 303 302 302 302 302 302 302 302 301 301 302 302 303 304 304 304 305 307 307 306 306 307 308 308 307 307 307 306 306 306 307 308 308 308 307 308 307 307 307 307 306 305 305 305 305 304 304 304 304 303 303 302 302 301 301 300 301 300 301 301
Wind_Speed
23 24 25 26 27 27 28 29 29 29 26 22 15 7 3 3 4 4 1 3 4 5 2 0 1 1 2 4 5 6 5 7 7 7 6 5 3 2 3 5 4 2 1 3 6 6 7 10 8 8 12 10 7 15 22 20 17 13 9 12 9 4 6 10 9 9 9 8 10 13 13 14 14 13 13 12 11 12 10 7 6 7 7 5 3 4 3
24 25 26 27 27 27 27 28 29 29 25 21 15 5 2 3 2 1 1 4 5 4 2 2 3 2 3 5 5 5 5 7 7 7 6 4 3 2 3 4 4 2 1 1 2 3 5 7 5 6 10 8 8 16 24 22 18 12 9 10 8 5 8 10 9 10 10 8 9 12 13 13 11 12 14 14 14 15 12 9 6 6 10 11 7 5 4
25 26 28 28 26 26 27 27 28 29 24 18 12 4 1 1 1 0 2 4 4 3 3 3 4 4 6 6 6 5 4 5 7 8 8 6 5 3 4 5 5 3 3 2 4 4 4 4 3 4 7 7 7 15 22 21 18 14 11 11 9 6 7 10 10 10 11 10 10 11 12 12 10 12 17 17 16 17 13 8 6 7 10 12 10 5 5
25 27 28 27 26 25 26 26 27 28 25 18 11 5 2 2 1 1 1 3 3 3 3 4 4 5 6 6 5 4 4 4 4 6 7 5 5 5 6 6 5 3 2 2 5 6 3 2 4 6 7 6 6 14 21 20 18 15 13 12 9 5 6 10 10 9 9 10 9 9 11 12 12 14 18 17 17 17 13 8 8 7 7 9 11 9 6
25 26 26 26 26 26 25 26 26 27 25 17 9 5 3 2 2 2 2 1 3 3 3 4 4 4 5 5 5 6 7 7 4 2 2 3 4 5 4 4 3 1 2 1 3 7 6 4 5 7 6 6 7 14 18 19 15 13 12 14 10 5 7 12 11 9 9 9 8 10 12 15 15 16 17 17 17 17 14 11 9 8 7 8 9 10 8
25 24 24 24 24 24 24 25 26 27 24 15 7 4 2 2 1 1 2 3 3 3 3 4 5 7 6 4 5 7 9 8 5 1 2 4 4 3 2 3 4 2 1 0 1 5 6 6 6 5 6 8 9 12 15 16 14 12 12 14 9 5 8 12 11 8 6 5 7 9 13 15 16 17 17 17 18 19 17 14 11 8 8 7 7 11 12
24 22 21 22 22 22 23 23 24 26 23 14 7 4 2 2 2 2 2 3 5 7 7 7 8 8 6 4 4 6 8 8 6 3 3 4 2 3 2 4 2 2 3 1 2 4 4 6 6 3 5 9 10 10 11 11 13 14 13 12 8 5 6 11 11 8 5 4 5 7 10 13 16 18 19 18 19 20 18 16 14 11 8 5 4 11 12
22 21 21 21 22 22 22 21 22 25 23 14 7 4 3 2 2 2 4 5 6 7 7 6 7 6 5 4 4 5 7 7 8 5 4 5 4 0 4 9 8 6 5 2 5 7 6 5 5 5 3 7 7 7 8 9 12 15 12 10 9 6 6 10 10 7 7 5 4 6 9 12 14 17 18 18 19 19 18 17 15 12 11 7 4 8 8
20 21 21 22 23 23 23 22 23 25 21 13 6 4 5 4 3 2 3 5 4 5 5 5 5 4 3 3 4 5 6 7 10 7 3 5 6 4 7 11 8 5 5 6 6 7 8 7 6 5 2 1 1 1 4 7 12 14 11 9 9 7 5 8 8 7 7 7 6 7 8 10 13 16 18 19 18 16 16 16 14 13 13 11 8 8 6
20 21 22 22 24 25 25 24 25 26 22 13 6 5 7 7 3 3 3 4 4 5 5 5 5 3 1 2 4 6 7 8 9 6 2 3 4 4 6 10 8 4 6 6 4 7 8 8 7 4 2 2 3 1 1 4 8 11 10 8 9 9 6 6 7 7 7 8 7 6 7 8 11 11 13 16 17 15 15 14 13 14 13 11 9 8 6
21 21 23 24 25 26 25 24 24 25 23 16 8 6 8 8 5 2 3 4 4 5 5 4 4 4 4 6 7 8 9 8 7 6 4 4 5 5 7 9 7 3 5 3 5 10 11 10 6 3 3 2 1 1 2 4 5 7 9 8 8 10 8 6 7 6 6 8 7 7 8 8 5 1 1 5 9 12 14 12 12 13 11 5 3 3 8
23 24 25 25 26 26 25 23 23 22 22 20 13 8 10 10 6 3 3 4 5 6 5 5 6 7 8 9 9 9 9 9 8 8 8 9 9 8 8 7 5 3 4 3 8 11 9 5 2 3 2 1 3 5 6 6 5 5 9 9 9 10 9 6 6 6 6 7 8 8 8 5 2 1 3 3 2 4 6 7 9 12 10 6 5 5 10
25 26 26 26 25 25 24 23 23 21 20 21 17 11 12 12 5 3 3 4 5 6 6 8 9 8 8 8 9 9 9 9 9 9 9 9 9 8 6 5 6 4 6 7 10 9 3 4 4 4 5 5 5 6 7 6 5 6 10 10 8 9 9 6 5 5 5 7 8 7 4 3 3 2 2 3 4 4 5 5 8 11 11 11 10 8 9
24 24 25 24 23 23 23 22 23 22 20 20 18 13 12 10 4 3 3 3 5 7 7 7 7 7 8 8 8 8 8 8 7 6 7 7 7 7 5 5 5 4 5 6 6 4 1 4 5 5 6 5 5 4 3 4 4 5 9 10 9 9 9 6 5 5 5 7 8 5 1 3 4 3 5 7 5 7 8 7 8 12 12 11 10 10 12
23 23 23 23 22 22 22 22 22 23 21 19 18 15 12 9 5 3 3 3 6 7 4 3 6 8 9 8 7 6 6 5 4 4 5 6 6 6 5 4 4 2 2 3 3 1 1 2 5 6 5 5 5 3 2 3 4 2 4 8 9 9 8 7 7 5 5 7 9 6 5 6 3 3 7 8 4 5 7 5 6 12 13 11 11 13 15
23 23 22 22 22 22 22 21 22 22 21 19 18 16 13 9 5 3 3 3 5 5 4 6 8 8 7 7 6 5 4 3 4 4 3 3 4 3 1 1 2 2 3 3 2 0 1 1 4 6 5 5 6 5 5 6 6 3 3 7 10 9 8 7 7 6 6 7 8 7 6 5 4 5 7 8 4 4 6 5 7 12 15 13 13 15 16
22 22 22 22 22 21 21 21 21 21 20 20 19 18 14 10 6 4 3 2 3 5 6 7 7 5 5 5 4 3 3 3 3 4 3 3 4 2 2 3 3 4 4 3 2 2 2 1 2 4 5 3 3 5 5 6 6 6 5 7 10 10 7 7 8 7 8 8 7 6 4 2 6 6 7 8 5 3 7 8 7 11 16 16 15 16 17
22 22 22 22 22 22 22 21 21 21 20 20 20 18 14 11 8 5 3 2 3 5 5 4 4 5 5 4 4 3 4 3 3 3 3 3 3 2 2 4 3 3 3 3 3 3 3 2 3 3 4 3 1 2 4 5 6 7 7 6 7 9 8 8 9 8 8 9 7 5 3 3 5 6 8 8 5 4 8 6 1 5 14 16 16 17 18
22 22 22 22 22 22 22 21 22 21 20 20 20 18 15 13 10 6 4 3 3 5 6 5 6 7 6 4 5 4 4 4 3 3 4 1 2 4 2 1 1 2 2 3 3 3 3 3 2 3 2 4 2 1 2 3 3 4 7 7 7 8 7 7 8 8 8 8 7 6 2 2 4 9 9 5 5 4 3 1 2 2 10 13 14 15 16
22 22 22 22 22 22 22 22 22 21 20 19 19 19 18 14 9 7 7 5 4 7 10 8 7 9 7 5 6 5 4 4 4 3 4 1 2 3 2 3 2 3 3 4 4 3 4 4 3 2 3 4 2 1 1 3 2 1 3 5 6 6 7 8 8 7 7 7 8 7 3 3 8 12 8 4 4 1 3 2 1 3 7 10 11 12 14
21 22 23 23 23 23 23 22 22 21 20 19 19 19 18 13 9 9 11 9 5 5 6 4 4 9 11 11 12 10 7 7 6 3 4 3 2 2 1 1 1 3 2 3 4 2 2 2 3 1 1 1 1 2 2 4 4 2 0 1 3 4 6 7 7 7 7 8 7 3 1 5 10 8 4 2 1 3 5 4 0 3 7 8 9 10 13
21 22 23 24 24 23 23 23 22 22 20 20 20 18 17 15 13 12 12 11 9 9 13 15 16 19 21 21 22 21 19 17 12 8 6 4 3 4 3 2 2 1 0 2 2 2 1 2 2 2 2 2 2 2 2 3 4 4 3 2 2 1 1 3 4 5 4 2 1 1 2 3 5 3 4 3 2 2 4 4 1 3 6 6 7 11 14
21 22 23 24 24 24 23 23 23 22 21 21 20 18 18 18 16 14 12 10 10 13 19 22 19 18 18 18 16 17 20 22 19 15 11 6 3 4 4 2 3 2 0 2 2 2 1 1 1 2 2 2 2 3 3 4 2 3 3 2 0 3 2 4 2 3 3 2 3 2 1 3 3 3 3 3 2 0 2 3 1 3 5 6 7 10 13
22 22 23 23 24 24 24 23 24 23 22 22 21 19 20 19 16 13 10 6 5 6 8 9 6 5 7 7 5 6 12 16 18 18 17 11 5 3 2 1 3 2 1 3 4 4 3 1 1 2 2 1 2 3 4 4 2 2 2 3 2 2 0 3 2 3 5 3 4 4 2 3 3 3 2 2 0 1 2 3 2 3 5 6 8 11 13
22 22 23 24 24 25 24 24 24 24 23 23 22 20 19 16 13 10 7 4 4 4 3 3 3 3 5 8 4 4 6 8 10 13 16 15 12 6 2 3 4 3 4 5 4 4 4 2 2 3 2 1 2 3 2 1 1 1 3 3 2 2 1 3 3 4 4 2 4 3 2 3 3 2 1 2 2 1 2 2 2 4 6 8 10 12 14
22 23 23 24 25 25 25 25 25 25 24 24 22 19 17 16 12 9 7 6 4 3 3 4 2 1 6 9 5 2 3 4 8 12 14 16 15 11 7 5 5 5 5 5 4 4 4 3 3 4 2 1 1 2 1 1 0 1 2 1 2 1 1 2 2 4 3 1 4 5 4 4 5 5 2 1 1 2 3 4 4 7 8 9 11 13 13
23 23 24 25 26 26 25 25 26 26 25 24 22 18 15 14 11 7 7 5 3 2 3 4 3 5 9 9 6 4 2 5 9 10 11 11 11 11 9 7 5 4 3 2 3 4 4 3 3 2 1 1 1 1 1 1 1 2 1 1 1 3 3 1 2 5 3 1 3 5 2 2 4 6 5 3 2 3 5 6 7 9 9 11 12 12 12
23 24 24 25 26 25 25 26 26 25 25 24 20 16 13 10 7 5 5 5 4 4 4 5 7 9 9 6 4 4 2 5 8 8 8 9 9 10 9 6 4 3 1 1 2 3 3 2 2 1 1 1 1 1 0 1 2 3 1 2 1 2 0 1 2 3 1 3 3 2 1 3 4 5 5 5 3 4 6 7 8 9 10 12 13 12 11
24 24 24 26 26 26 27 28 27 25 25 22 17 13 8 5 3 2 2 3 4 4 6 6 6 5 4 4 4 4 1 4 7 7 7 7 9 9 8 6 5 4 3 3 3 2 1 1 1 1 1 3 2 1 1 3 4 2 2 2 1 2 0 1 4 4 3 3 4 3 3 4 5 6 5 5 4 5 6 7 8 9 11 12 13 13 12
25 24 25 26 28 28 28 29 27 25 22 18 12 8 5 4 2 0 1 1 3 3 4 4 3 2 3 3 3 2 1 3 5 6 5 6 6 6 5 4 4 3 3 3 2 1 0 1 2 1 1 2 2 1 1 3 3 3 4 1 1 2 3 3 3 4 2 2 4 5 5 6 6 5 5 4 2 3 5 6 8 9 10 12 13 12 12
26 26 26 28 29 29 30 29 26 22 18 12 6 4 2 0 2 1 2 2 2 3 3 4 4 4 3 1 2 2 2 2 5 4 4 3 3 4 4 3 2 2 2 1 1 0 1 1 1 1 1 1 1 1 1 4 3 3 3 1 0 1 3 2 1 2 1 4 5 6 7 6 4 4 5 4 3 4 6 6 8 10 10 11 12 12 12
27 28 28 29 30 31 30 27 24 20 14 10 9 8 7 6 6 7 5 3 2 3 3 3 3 3 2 0 0 3 3 2 5 4 3 3 3 4 4 2 1 1 1 0 1 1 0 1 2 1 2 1 1 2 2 3 1 3 3 1 1 2 2 2 2 2 4 4 4 5 6 5 3 3 4 5 4 5 7 8 10 11 11 12 13 13 13
29 30 31 32 31 30 28 26 23 17 12 12 13 12 10 8 9 9 6 3 3 3 3 3 3 2 2 1 1 3 4 2 3 2 1 2 2 3 3 3 2 2 1 0 1 1 0 2 2 0 2 2 2 2 1 1 2 3 2 1 2 2 3 4 5 4 4 2 2 1 4 5 5 5 5 6 5 6 7 9 10 11 12 13 13 12 13
30 32 32 32 30 29 26 22 14 8 6 7 6 4 5 7 9 8 6 5 4 3 2 3 3 2 2 1 2 4 6 4 1 2 2 2 1 1 2 3 2 1 1 1 1 1 0 1 2 1 2 2 2 2 0 2 3 3 3 3 3 2 4 6 5 3 3 3 3 4 6 7 7 6 6 6 6 7 8 9 10 11 11 11 12 12 12
31 32 32 30 27 23 16 8 3 4 5 4 2 2 7 11 10 6 9 7 3 2 2 2 2 2 3 1 3 5 6 4 1 2 2 1 1 1 0 1 2 1 2 1 1 1 1 2 2 1 1 2 1 0 1 3 5 5 4 5 5 3 4 5 5 4 4 4 6 7 8 8 7 6 6 6 6 8 9 8 10 12 11 10 11 12 10
32 31 29 25 17 9 4 1 2 4 3 1 4 7 7 5 2 4 7 6 4 3 2 2 1 2 4 3 2 4 5 3 1 1 1 0 1 1 1 0 2 2 0 1 1 2 2 1 2 1 1 1 1 3 3 3 5 5 5 6 6 4 3 5 6 6 7 7 8 8 6 6 5 5 6 7 7 8 10 10 10 11 12 11 12 11 10
30 27 22 14 5 2 2 2 3 0 5 8 8 3 1 4 4 4 4 4 4 3 3 3 2 2 3 3 2 3 4 3 2 1 1 1 1 1 2 2 2 1 1 1 4 3 2 1 2 2 3 3 3 4 3 2 3 4 5 5 4 3 3 5 7 9 9 8 7 6 5 4 5 5 6 7 8 8 10 10 9 10 12 12 11 10 11
25 20 14 7 3 3 2 2 1 8 12 9 3 2 4 2 2 2 2 2 2 2 2 3 2 1 1 2 2 2 3 3 2 2 3 2 1 0 1 2 1 1 0 3 3 2 2 1 1 2 4 3 2 2 3 3 3 4 4 4 3 3 4 5 6 7 7 6 5 5 4 4 6 6 6 7 8 8 8 8 7 8 9 11 11 11 13
18 13 8 5 3 1 1 4 11 14 9 2 3 3 2 3 3 2 2 2 2 1 2 2 1 2 2 3 2 2 1 3 3 3 3 2 1 1 2 1 1 2 1 3 2 2 1 2 1 2 3 3 2 3 3 3 4 4 4 3 3 3 4 4 2 2 2 2 3 3 1 3 6 7 7 7 7 6 6 6 7 8 8 10 13 14 13
13 9 4 3 4 5 8 13 15 10 2 3 3 2 2 2 2 1 1 2 2 1 1 1 1 1 2 3 3 1 1 2 3 4 3 2 1 1 2 1 1 2 1 4 3 3 2 3 3 3 4 3 3 5 4 4 5 5 3 3 4 5 5 3 2 2 3 3 5 3 1 3 7 8 8 8 8 7 6 6 7 9 9 10 13 14 12
11 9 6 6 10 13 15 14 9 3 2 3 2 2 2 2 1 1 2 2 2 2 1 2 2 0 1 2 3 1 1 1 1 2 1 1 1 1 1 2 1 1 2 4 2 3 2 2 3 5 5 3 4 6 5 5 6 4 3 3 4 5 4 3 2 2 3 5 5 3 3 6 8 7 8 8 8 8 8 7 8 10 12 12 13 13 13
14 13 13 14 16 14 12 7 3 3 3 2 2 2 2 1 1 2 2 1 1 1 1 1 3 3 2 2 3 2 1 1 1 3 1 1 1 1 1 1 1 0 3 3 2 3 1 3 5 5 5 3 5 6 6 6 6 5 4 5 5 5 4 2 2 3 4 5 4 4 6 7 7 6 8 8 8 8 9 10 11 13 14 14 15 14 16
17 13 10 9 8 6 4 2 2 2 2 1 2 2 2 2 2 1 1 1 0 1 0 0 2 3 2 1 2 2 0 0 1 2 1 2 1 1 1 1 1 2 2 1 2 1 3 4 5 5 4 3 5 6 6 7 7 5 5 5 5 4 3 2 2 4 5 6 6 6 7 8 7 7 7 9 9 10 10 11 13 14 14 15 16 16 18
12 6 4 3 2 2 3 1 1 1 2 2 3 3 3 4 3 2 2 1 0 1 1 2 3 3 1 1 1 1 1 1 2 2 1 1 0 1 1 2 2 1 1 2 1 2 3 3 3 4 3 2 4 6 6 7 8 7 6 6 6 5 4 3 3 5 6 7 7 7 7 8 8 7 7 8 10 10 11 11 13 14 14 14 14 16 18
6 2 2 2 1 2 2 1 1 2 3 3 3 4 4 4 3 2 1 2 2 2 2 2 3 3 3 1 1 1 1 1 1 0 1 1 1 1 2 2 1 1 1 0 2 3 3 4 5 5 4 1 4 7 7 7 8 8 7 7 7 6 5 4 5 5 6 6 7 7 7 7 8 7 7 8 9 10 11 12 13 15 15 14 14 15 17
3 2 2 2 1 1 1 1 2 3 2 1 1 2 1 1 2 3 3 2 3 3 4 3 3 4 3 1 1 1 1 2 1 1 1 2 1 2 2 1 1 1 1 2 3 3 4 6 6 5 4 2 5 7 8 7 8 8 8 8 8 8 6 5 5 6 6 7 7 7 6 7 7 8 8 8 9 9 10 11 14 16 16 15 15 17 17
2 2 2 2 1 2 2 2 1 1 0 1 1 1 2 2 2 3 2 2 3 4 4 3 3 3 2 2 2 1 1 1 1 1 0 1 1 2 0 2 1 1 2 3 4 4 5 6 5 4 3 2 5 8 8 8 8 8 7 7 8 9 7 6 5 6 7 8 8 7 7 6 7 7 8 9 9 9 10 11 13 15 15 15 16 17 18
2 2 2 1 1 2 2 2 1 1 1 1 2 2 1 0 1 2 3 3 3 3 4 4 3 2 2 2 1 1 1 1 1 1 0 1 0 1 1 1 1 1 1 2 4 5 5 5 4 3 2 3 5 7 8 8 8 8 7 7 8 9 8 6 5 6 8 8 8 7 7 7 7 7 8 9 9 10 10 11 12 13 14 15 16 17 18
2 2 2 2 2 1 1 1 2 2 2 2 1 1 1 0 1 3 4 4 4 3 2 2 3 2 1 1 1 2 1 1 0 1 1 1 0 0 0 1 1 1 1 2 3 4 4 3 3 2 3 4 5 7 8 8 7 7 6 7 8 8 7 6 6 7 8 8 7 8 8 7 7 8 9 9 9 9 10 10 11 12 13 14 16 17 17
2 2 2 2 2 2 1 2 3 4 4 2 1 1 1 1 2 3 4 5 5 3 2 2 2 2 1 1 2 2 1 1 1 1 1 1 1 0 1 1 1 2 2 3 3 3 3 2 2 2 4 5 6 7 7 7 7 7 7 8 8 8 7 7 7 8 8 7 8 9 9 8 7 9 10 10 10 11 10 9 10 10 12 14 16 15 14
2 2 2 1 2 1 1 1 3 3 3 2 1 2 2 2 3 4 5 6 5 4 2 1 1 2 2 2 2 1 1 1 1 2 1 1 1 1 1 1 1 2 3 3 2 2 2 1 1 2 4 6 6 7 7 7 7 7 7 7 7 7 8 8 8 8 8 8 9 10 9 7 6 8 9 10 11 11 10 8 8 9 11 14 15 14 13
2 2 1 1 1 1 1 2 2 1 0 0 1 2 2 2 3 5 6 6 4 3 3 2 2 3 2 1 1 1 1 1 2 2 1 1 1 1 2 3 4 4 4 3 2 2 2 1 1 2 4 6 7 7 7 7 7 8 8 7 7 7 8 8 8 8 8 9 9 9 8 7 7 8 9 10 10 9 8 7 9 10 10 12 14 14 14
Wind_Direction
358 358 357 356 354 351 351 353 353 355 356 355 349 343 339 6 42 45 59 181 226 273 280 95 302 292 339 326 295 287 295 294 298 304 295 295 293 275 286 285 290 339 64 152 167 178 167 167 175 170 177 184 168 169 177 180 180 182 174 159 157 178 189 177 168 178 187 168 174 203 209 200 204 211 211 211 209 207 216 225 203 196 202 191 207 212 147
356 356 355 355 353 351 351 352 353 356 359 353 344 344 31 8 17 57 170 209 251 297 349 7 338 336 327 309 296 291 285 280 281 288 293 293 286 278 275 278 295 350 328 231 199 211 183 169 165 169 175 163 142 169 180 181 181 187 179 163 162 172 185 183 169 170 179 171 180 201 206 207 210 208 210 215 210 203 211 225 214 206 208 203 213 219 147
355 354 354 353 352 351 351 352 353 355 358 354 344 336 327 307 267 181 196 215 253 304 353 331 314 327 324 307 301 298 277 258 259 271 276 267 263 277 282 291 304 302 272 227 225 240 209 165 148 161 163 140 144 177 182 182 183 186 182 175 174 178 185 188 183 175 180 186 192 196 196 202 211 209 207 211 210 205 206 211 206 208 208 203 212 214 122
353 352 353 354 353 352 352 352 352 354 357 355 344 328 304 309 344 338 192 198 245 272 292 287 285 311 320 313 310 303 293 293 277 273 277 270 265 270 279 300 309 262 212 173 182 187 173 144 151 156 144 125 156 177 179 183 184 177 176 176 177 187 192 199 204 194 190 195 194 189 190 195 204 208 208 208 209 208 207 208 213 214 208 206 215 210 160
350 351 353 354 353 351 353 354 352 353 357 355 343 326 317 337 8 343 331 280 245 248 256 258 266 292 308 320 325 312 312 324 331 282 285 311 300 281 279 295 300 257 127 120 161 158 147 129 140 150 131 110 140 163 175 185 174 156 170 181 181 191 189 198 213 207 198 194 178 176 188 196 199 205 209 208 207 209 211 215 220 220 217 213 206 200 192
348 350 350 351 351 351 354 355 352 352 356 358 353 344 344 360 10 300 315 306 277 283 292 280 278 281 286 295 299 307 320 332 340 314 262 299 291 254 271 279 260 266 52 98 147 141 138 119 118 140 135 125 137 154 173 184 169 158 179 185 186 200 186 189 203 201 194 183 161 173 192 197 198 202 206 206 206 208 212 216 221 220 222 219 185 188 208
346 348 349 350 350 352 355 356 354 354 356 359 3 2 6 3 334 294 300 296 288 296 297 289 282 276 277 277 277 304 321 326 330 306 263 305 287 213 302 353 39 45 12 25 74 68 91 100 90 87 128 138 146 153 168 182 178 179 187 183 192 218 181 176 193 196 187 175 162 180 199 202 204 206 208 208 208 208 209 212 214 212 220 236 191 191 207
347 348 350 353 354 356 357 356 355 355 356 359 7 22 25 349 313 306 308 291 278 285 288 280 278 275 272 277 284 301 308 318 332 321 285 318 335 322 3 10 24 22 4 56 75 42 29 56 53 25 90 137 149 159 167 178 182 186 187 177 190 216 176 167 189 197 178 179 181 188 203 211 211 212 212 211 211 210 208 209 209 209 215 225 227 204 195
351 352 355 359 360 360 359 357 358 359 360 358 352 13 14 328 270 245 295 303 291 291 295 289 289 288 267 273 302 307 305 323 336 334 315 320 333 3 15 8 5 14 38 62 61 25 8 9 3 348 354 75 48 146 164 174 178 182 183 173 182 206 185 166 192 205 179 181 196 193 200 215 218 218 214 211 211 209 208 211 208 207 211 209 217 225 201
356 357 359 0 1 360 357 357 358 360 3 3 341 347 3 340 284 213 252 292 298 297 304 301 296 302 278 265 293 305 310 320 326 330 350 12 5 6 2 356 349 11 50 44 355 326 329 332 330 318 297 322 330 341 151 189 186 179 177 175 182 197 198 176 193 202 174 174 194 194 194 210 218 221 216 212 213 210 208 209 203 204 211 208 214 229 189
357 358 359 359 358 356 354 355 356 356 360 3 348 340 355 344 313 269 261 277 294 304 310 308 305 319 312 294 293 298 300 307 316 316 311 330 342 321 319 331 333 1 48 28 292 297 302 303 303 279 260 279 233 162 152 187 196 186 181 179 180 193 204 193 188 196 177 168 178 191 202 209 208 227 316 221 215 209 206 202 195 200 209 209 220 210 150
353 354 356 356 354 351 350 351 352 352 353 355 351 347 351 342 318 289 285 287 299 313 313 305 305 306 302 298 297 298 297 301 307 302 295 302 308 302 305 312 305 346 28 330 295 300 291 269 247 210 195 148 134 134 137 156 176 190 190 185 180 190 202 195 188 200 184 165 176 196 206 207 173 50 27 53 106 186 196 195 195 197 197 195 205 185 156
348 349 350 351 349 347 346 347 348 348 348 350 352 352 350 345 324 282 302 291 290 309 309 302 302 303 306 307 301 296 296 296 293 287 285 291 294 294 299 292 282 315 348 325 309 307 280 170 151 148 136 124 127 122 114 122 146 183 195 195 188 188 195 194 196 200 179 174 194 203 182 130 128 135 123 112 117 148 168 194 207 200 197 202 205 185 157
343 344 345 344 344 343 344 345 345 345 346 348 349 349 351 352 338 303 313 293 293 304 299 294 306 317 320 316 305 297 297 295 292 284 272 270 281 291 295 286 281 306 333 318 303 298 247 158 150 136 127 130 133 122 99 93 107 164 193 198 198 195 193 188 190 199 196 195 200 199 164 169 169 159 170 173 168 172 183 209 213 197 195 200 190 165 152
340 342 342 342 342 342 342 343 343 343 346 347 344 342 345 348 336 302 294 297 306 307 296 302 323 324 317 310 303 302 305 308 309 288 262 257 268 277 282 290 292 290 296 297 295 319 352 176 159 140 137 154 151 156 193 146 106 106 188 192 198 207 206 195 185 190 210 212 202 202 218 208 178 117 154 167 170 179 190 224 216 186 185 191 179 162 156
340 341 341 341 341 341 341 342 342 342 343 343 340 335 334 337 329 294 278 288 300 307 326 329 318 306 299 297 291 286 288 305 316 304 279 274 280 274 273 304 275 222 216 235 253 291 348 226 171 151 149 164 154 148 167 159 134 116 153 174 185 199 210 210 200 192 204 216 210 209 213 186 121 96 136 153 152 155 176 225 221 182 176 184 178 165 158
339 340 340 340 340 340 340 339 339 340 341 341 337 329 325 322 308 278 258 252 272 285 295 305 308 301 296 296 287 270 265 277 295 306 311 324 326 332 120 132 157 187 209 221 214 198 174 198 219 178 144 136 150 149 156 159 145 143 160 172 179 187 196 209 211 206 207 215 216 216 213 127 92 96 128 142 136 148 184 207 205 168 168 177 177 169 163
338 338 338 338 339 339 338 338 338 338 338 337 333 326 321 323 313 281 245 253 286 277 254 254 288 291 288 298 300 300 302 294 291 300 286 284 317 323 146 140 144 170 212 232 215 193 172 175 236 210 134 115 241 178 156 160 152 158 175 179 179 186 194 205 211 210 208 214 220 211 182 91 96 117 130 138 146 184 197 196 156 158 171 176 176 172 165
336 336 335 336 337 337 336 336 337 337 335 335 334 326 320 323 316 283 254 248 263 273 266 264 273 263 255 277 281 268 276 281 285 299 278 247 342 322 297 149 164 173 195 224 210 196 193 184 227 257 174 157 208 272 148 167 158 159 175 180 181 184 189 202 214 213 207 211 222 215 179 89 118 124 122 151 185 188 186 152 6 222 184 173 173 170 163
334 333 333 334 335 335 335 335 336 336 334 335 334 324 315 316 309 280 269 254 250 282 283 268 251 242 233 248 263 258 265 260 240 257 275 298 352 309 226 156 174 174 175 203 198 202 218 186 167 238 215 152 147 288 184 179 199 204 184 188 190 186 189 199 205 208 208 207 216 223 209 153 148 133 127 198 219 62 11 355 322 216 180 167 169 166 164
332 331 331 332 333 333 333 334 336 337 334 334 333 322 312 312 313 298 282 264 249 283 288 270 261 259 252 250 254 255 259 254 241 255 285 295 310 271 214 129 196 184 177 202 189 187 242 196 147 200 230 109 140 235 194 176 185 178 50 235 208 189 203 210 195 191 209 210 208 221 92 141 158 145 126 199 157 24 345 337 32 178 174 168 168 165 172
330 330 328 329 331 331 332 333 335 336 333 333 331 320 307 307 314 313 294 265 239 246 266 279 289 282 268 261 255 251 250 251 254 270 288 286 267 253 272 319 281 220 295 275 221 182 210 206 187 201 186 158 189 215 227 218 187 155 148 226 238 99 328 266 213 180 202 218 170 36 42 129 151 101 47 40 52 11 323 327 3 169 174 176 175 172 175
328 327 327 327 327 329 330 331 333 333 331 331 329 318 307 306 310 313 303 272 251 258 265 272 282 281 269 265 261 253 249 247 247 247 247 252 267 250 244 289 304 271 327 340 327 325 310 215 235 239 205 189 204 205 222 244 224 154 160 205 330 54 19 295 260 148 142 96 92 101 137 160 153 105 59 32 15 337 280 294 271 176 176 183 180 170 167
325 325 325 324 324 326 328 329 330 331 329 328 326 314 304 302 304 311 308 280 271 288 270 255 265 284 287 293 286 241 238 239 237 233 227 227 247 256 226 351 333 304 340 5 350 320 302 328 328 271 234 215 229 216 216 226 223 190 192 191 149 100 213 266 244 155 175 179 128 118 148 176 176 160 120 89 61 234 258 268 233 178 173 168 152 146 150
324 323 322 322 322 323 325 327 328 329 328 328 325 316 305 301 303 309 305 282 286 313 306 273 246 252 307 317 299 227 238 245 232 219 211 211 224 245 315 13 357 345 338 334 323 283 265 272 268 242 219 208 248 244 236 229 181 217 233 211 147 95 272 253 219 182 188 159 101 115 180 204 198 202 167 124 138 173 216 241 207 172 163 156 144 143 150
322 322 320 320 320 321 322 325 326 326 327 327 323 314 302 297 298 294 280 276 273 255 275 300 271 243 325 327 316 280 280 243 212 204 202 206 219 240 267 296 313 332 332 317 304 288 271 260 256 249 228 200 262 277 300 345 38 263 262 311 59 82 234 247 219 203 207 163 138 162 189 187 184 196 201 96 109 164 169 174 173 161 157 159 157 153 155
320 321 319 318 318 319 320 323 324 325 326 326 321 311 297 291 291 274 256 272 300 280 270 293 311 327 328 321 312 320 299 202 192 198 204 205 216 235 250 263 286 319 338 326 306 291 265 249 261 277 319 30 290 283 327 2 316 261 234 97 115 227 214 186 231 220 217 137 146 166 168 126 161 177 172 147 160 173 160 161 165 161 159 162 160 150 143
319 320 318 317 317 317 319 321 323 325 326 326 320 309 293 281 277 260 241 251 284 310 304 291 293 308 315 310 315 336 297 194 186 190 199 200 206 220 233 243 254 267 267 254 272 265 245 253 280 311 29 3 267 218 150 156 230 243 206 135 243 274 341 39 288 257 313 28 65 125 55 55 107 137 135 133 159 172 162 162 165 160 159 160 153 142 132
317 318 317 316 315 315 317 321 325 326 327 326 322 309 287 258 250 275 251 233 246 282 300 289 275 291 316 317 320 332 286 200 195 196 203 204 204 210 221 229 232 233 231 243 259 254 211 316 2 44 7 329 304 214 177 211 213 190 112 121 275 307 231 294 318 328 350 26 45 51 45 69 105 120 115 120 157 174 163 160 161 159 158 155 148 142 139
316 317 316 314 312 314 318 322 325 325 324 323 317 301 266 211 180 146 334 259 252 280 308 303 286 320 340 312 287 299 286 190 196 204 216 220 214 214 222 224 220 226 238 247 275 308 166 50 44 75 44 337 311 185 199 241 216 118 82 74 266 248 209 221 309 333 353 56 58 61 76 91 109 122 117 114 148 163 150 152 156 153 153 151 145 142 143
315 316 314 312 312 314 318 320 321 321 318 311 298 289 293 122 126 39 352 334 269 264 290 289 275 294 317 251 231 318 343 174 176 184 198 206 203 198 203 204 198 217 246 261 66 30 321 13 10 168 129 30 300 215 236 253 215 123 83 42 293 193 190 186 292 337 73 97 93 98 98 94 100 127 131 127 132 140 140 145 144 138 136 139 138 135 135
314 314 313 312 312 315 318 319 317 312 300 272 249 263 289 295 279 280 298 315 270 263 292 298 280 297 333 257 227 336 328 197 174 173 179 181 175 170 174 177 140 133 163 127 109 101 17 302 275 223 119 113 268 249 253 265 221 103 81 64 115 154 171 151 124 120 119 115 114 114 107 92 67 81 116 127 130 136 142 144 141 134 126 123 123 120 118
314 314 313 313 315 316 317 314 308 298 278 256 255 265 272 273 275 273 262 244 252 261 281 300 295 306 325 313 41 10 340 261 178 155 141 157 184 179 162 153 142 127 108 78 88 58 299 245 260 34 106 141 248 258 263 323 59 94 112 110 103 128 144 136 130 124 108 74 9 39 95 99 88 89 117 131 129 133 142 144 141 135 126 120 118 113 107
314 313 313 316 317 315 313 310 302 283 248 241 248 253 259 280 290 271 220 206 248 252 236 279 297 308 298 251 99 32 353 336 16 33 47 106 189 232 167 158 174 162 42 39 149 168 205 271 306 342 130 163 227 249 200 98 111 134 141 111 88 110 141 136 125 99 70 55 47 65 87 102 108 114 127 129 127 133 142 143 140 134 127 121 118 115 110
315 314 315 317 317 314 312 309 274 213 202 191 177 271 293 302 301 248 192 194 249 260 214 246 278 316 327 344 76 33 352 337 10 6 7 89 97 336 341 137 121 74 26 354 199 170 54 13 326 292 167 168 211 357 81 114 135 150 148 130 125 147 157 139 115 85 73 84 94 98 105 117 123 126 130 133 138 145 145 143 139 132 124 119 120 119 116
315 316 317 319 319 316 311 271 194 198 197 263 309 299 302 332 13 160 181 210 260 286 305 290 273 329 340 355 38 4 335 331 36 18 319 145 72 4 297 317 83 79 309 268 34 48 47 3 296 295 96 72 26 53 70 114 139 146 148 140 140 157 153 127 115 106 96 94 98 105 117 129 128 129 137 141 142 146 148 148 142 132 125 126 128 125 124
319 321 322 324 322 250 222 162 138 173 321 324 319 306 116 97 100 139 178 218 239 247 277 295 315 360 349 336 332 330 334 350 15 27 15 14 34 20 335 358 66 108 226 57 43 24 355 283 297 22 54 39 36 66 86 120 128 130 140 141 143 155 137 123 125 122 110 104 108 114 121 134 135 137 146 147 145 149 154 153 147 136 133 135 134 130 134
328 330 328 318 275 233 192 133 316 312 317 319 305 164 151 169 204 183 174 200 213 210 240 269 307 360 321 300 323 355 360 346 344 35 44 14 342 346 360 29 44 309 276 79 51 335 268 220 336 46 67 57 52 94 114 130 124 124 136 137 137 153 146 139 143 135 120 119 136 136 133 148 150 148 151 151 150 153 151 143 137 134 136 139 136 132 137
336 334 320 293 282 321 32 326 312 315 320 294 200 214 215 212 218 209 178 180 185 183 210 239 303 337 312 309 346 47 30 318 326 29 46 28 14 12 16 58 44 319 28 86 59 315 328 72 43 58 82 95 128 126 120 135 140 135 136 136 138 151 150 140 128 70 34 72 136 136 151 172 161 156 153 149 148 146 134 122 125 131 134 137 136 134 137
347 343 331 319 337 342 330 320 319 320 301 187 212 244 224 206 223 272 214 197 189 162 171 260 301 321 292 301 326 44 93 323 338 1 19 39 46 345 337 35 35 330 39 71 40 326 344 38 38 42 51 71 133 140 136 147 147 140 138 145 147 152 152 139 100 25 30 84 109 102 80 150 155 157 154 149 147 141 128 120 125 127 124 127 133 135 133
350 344 328 316 316 314 313 314 315 295 224 224 226 221 225 224 212 254 255 240 189 130 124 289 296 280 176 277 301 321 60 38 331 301 315 46 72 297 342 50 31 291 54 61 23 296 302 15 34 38 37 54 134 148 153 158 151 142 142 147 148 152 151 132 100 103 116 113 106 95 114 135 146 154 151 145 142 138 135 135 133 128 127 130 132 131 129
319 307 295 295 299 299 299 296 264 211 223 242 227 232 238 195 169 215 241 252 61 86 118 294 317 331 332 304 289 282 6 48 275 258 279 43 28 303 360 46 238 273 54 42 313 275 335 28 27 29 37 79 139 154 164 166 159 151 147 148 149 153 147 119 88 114 132 128 112 106 117 126 133 139 138 136 134 133 136 139 136 134 139 144 141 134 133
311 299 285 286 289 281 264 236 197 208 226 214 210 226 213 188 206 229 177 140 71 336 54 43 314 301 289 268 255 250 234 61 268 269 324 34 346 286 340 16 5 36 41 321 272 313 38 28 15 17 29 87 148 165 171 167 159 152 145 146 146 139 128 103 88 106 119 120 113 112 119 123 124 127 131 132 131 129 130 134 136 138 142 145 143 141 143
314 293 255 260 271 240 224 205 172 218 223 209 209 214 197 183 187 188 153 129 56 4 25 358 318 307 329 8 284 256 223 200 230 254 339 32 305 316 360 34 46 37 298 250 276 37 37 22 11 15 28 98 161 171 172 168 165 157 146 144 146 141 136 134 130 127 126 122 116 117 123 126 126 128 133 136 136 133 131 134 138 139 138 136 135 137 141
312 276 235 248 244 214 207 160 153 223 224 215 217 219 206 186 171 149 84 29 346 325 334 336 308 296 303 308 268 260 267 238 221 285 360 304 312 27 29 27 18 303 266 298 42 35 27 23 16 10 13 83 165 170 169 171 170 162 150 148 151 152 155 159 154 147 140 132 127 129 132 131 132 134 133 133 137 140 139 141 144 144 139 134 134 138 141
305 292 282 283 265 232 224 193 186 201 205 201 230 241 224 124 85 68 48 8 322 315 327 326 300 289 295 290 226 230 271 262 245 61 329 283 334 59 44 321 285 281 334 37 39 27 19 20 15 7 11 70 156 163 166 169 170 164 160 159 158 160 164 163 156 150 144 139 140 141 136 135 140 140 133 128 132 138 143 146 148 147 144 142 143 149 152
281 275 277 276 246 217 215 198 178 168 104 47 26 25 38 56 72 67 38 347 325 322 318 299 274 266 278 283 268 235 216 239 266 58 338 291 43 89 172 254 272 37 17 19 27 25 19 16 15 16 31 116 153 158 163 170 172 171 171 168 165 166 166 160 151 149 147 147 149 146 138 139 148 147 137 129 129 135 144 150 150 149 149 148 148 150 154
312 292 278 291 271 213 200 185 157 133 104 75 65 67 61 104 97 59 26 345 313 307 306 302 289 261 230 230 253 248 204 204 190 138 189 305 55 142 196 265 50 68 343 353 15 20 16 13 16 30 73 143 155 157 162 170 174 175 176 174 173 172 167 154 146 149 149 151 152 144 135 141 152 150 141 134 132 135 144 152 154 153 152 151 149 150 153
285 271 266 288 290 255 214 220 201 170 137 100 84 89 94 125 68 38 8 333 312 313 317 307 296 291 263 193 231 244 231 202 164 163 174 194 197 171 81 37 50 55 35 13 7 8 18 29 42 82 129 145 153 159 166 171 175 177 176 172 172 170 160 147 145 150 150 150 149 141 137 144 155 153 146 140 136 138 144 151 154 155 154 151 150 153 157
248 259 258 259 246 217 194 220 218 194 171 160 151 84 27 16 44 35 6 337 322 311 275 227 249 289 303 260 231 213 159 72 316 242 187 145 129 162 174 134 60 22 20 19 6 6 30 60 91 132 143 148 156 163 165 168 174 176 170 165 165 162 151 143 146 151 151 148 145 143 146 155 163 161 154 146 140 139 141 145 151 154 155 154 154 154 155
237 244 248 266 275 262 216 227 227 206 188 182 144 41 11 356 15 16 354 328 312 305 306 354 328 287 258 235 227 206 101 11 271 238 177 113 137 200 194 84 48 18 10 15 21 32 52 81 127 145 148 153 160 163 164 167 172 170 161 157 156 151 141 141 149 156 154 145 141 145 153 162 163 156 148 140 136 135 134 138 147 151 152 156 159 161 160
244 251 246 259 293 301 290 266 260 257 202 125 49 27 4 355 4 354 334 317 318 341 359 353 311 283 273 316 339 309 271 239 226 207 153 140 180 243 350 13 16 7 358 1 23 73 98 105 118 143 153 158 160 161 163 167 168 163 156 153 152 147 144 148 157 159 150 140 139 146 153 150 136 130 129 132 138 141 140 142 150 154 153 156 163 169 171